EHI
0 0 0 0 0 0 0 0 0 0 0 1 3 3 1 1 1 2 4 7 9 12 18 23 25 23 18 14 13 13 13 11 8 6 4 1 0 0 0 1 1 1 0 0
0 0 0 0 0 0 0 0 0 0 0 1 3 2 1 1 1 2 5 9 12 15 19 25 27 25 20 16 15 16 15 12 8 6 4 2 0 0 1 2 2 2 1 1
0 0 0 0 0 0 0 0 0 0 0 0 1 1 0 0 0 2 5 9 13 18 23 28 30 27 22 17 16 19 18 14 9 6 4 2 1 1 1 2 2 2 3 2
0 0 0 0 0 0 0 0 0 0 0 0 0 0 0 0 1 2 5 9 11 16 23 28 29 27 22 16 15 18 19 16 13 10 7 3 2 2 3 3 3 3 4 4
0 0 0 0 0 0 0 0 0 0 0 0 0 1 1 1 2 4 7 9 10 14 20 25 26 25 22 19 17 18 20 19 17 15 10 5 2 3 4 3 4 5 5 4
0 0 0 0 0 0 0 0 0 0 0 0 0 2 3 3 3 4 7 9 11 14 18 20 21 22 22 23 24 23 23 22 19 17 13 7 3 4 4 3 3 4 3 2
0 0 0 0 0 0 0 0 0 0 0 0 0 1 3 3 3 4 6 8 11 16 19 19 19 19 20 23 25 27 27 25 21 17 14 9 6 4 4 2 1 1 1 0
0 0 0 0 0 0 0 0 0 0 0 0 0 1 2 3 3 4 5 7 11 15 18 18 16 16 18 20 22 25 27 26 23 19 15 12 9 6 3 2 1 0 0 0
0 0 0 0 0 0 0 0 0 0 0 0 0 0 1 2 4 5 7 8 10 12 15 15 13 14 18 20 20 23 25 26 24 21 17 13 10 8 5 3 2 1 1 0
0 0 0 0 0 0 0 0 0 0 0 0 0 0 0 2 4 5 7 8 8 9 12 13 12 13 16 18 21 24 26 25 24 21 17 13 10 9 7 6 5 4 2 1
0 0 0 0 0 0 0 0 0 0 0 0 0 0 1 2 3 6 7 6 6 8 10 11 10 11 13 15 20 25 26 24 22 21 18 14 10 9 9 9 8 6 4 3
0 0 0 0 0 0 0 0 0 0 0 0 0 1 2 3 4 8 10 9 8 8 8 9 9 10 10 12 17 23 24 23 21 20 19 17 12 10 11 12 10 7 4 4
0 0 0 0 0 0 0 0 0 0 0 0 0 1 3 5 7 10 10 9 9 8 7 8 9 10 10 11 15 19 21 20 20 20 20 18 13 11 12 13 12 9 7 6
0 0 0 0 0 0 0 0 0 0 0 0 0 1 2 5 8 9 7 6 6 6 6 6 7 9 10 12 15 18 19 18 19 20 20 18 15 12 12 12 11 10 10 10
0 0 0 0 0 0 0 0 0 0 0 0 1 2 2 3 6 6 5 4 3 4 4 5 4 5 9 13 16 17 17 16 17 19 20 20 18 16 13 13 13 12 12 13
0 0 0 0 0 0 0 0 0 0 0 1 2 2 2 4 7 6 6 6 5 5 6 5 3 4 8 13 15 15 14 14 16 19 21 20 19 18 16 17 17 16 14 15
0 0 0 0 0 0 0 0 0 0 0 1 2 3 5 7 8 6 6 7 7 5 5 5 5 7 10 12 15 15 14 16 18 21 21 20 19 17 17 18 20 20 18 15
0 0 0 0 0 0 0 0 0 0 0 2 4 6 7 7 5 4 3 4 4 4 4 4 8 12 15 16 17 19 19 18 21 23 22 21 19 16 16 18 20 20 19 16
0 0 0 0 0 0 0 0 0 0 1 3 5 5 4 3 3 1 1 1 2 4 5 7 11 16 20 21 23 24 22 19 20 21 20 19 18 17 17 19 19 20 20 18
0 0 0 0 0 0 0 0 0 0 1 3 4 2 1 1 2 2 1 2 4 6 9 11 13 17 21 23 24 25 21 18 17 16 16 16 17 18 18 19 19 20 20 19
0 0 0 0 0 0 0 0 0 0 0 1 1 1 1 1 2 3 4 5 6 8 11 13 14 16 17 19 21 21 18 16 15 14 13 13 15 17 17 18 18 19 19 18
0 0 0 0 0 0 0 0 0 0 0 1 2 2 2 2 2 4 6 6 7 9 12 14 14 14 12 13 16 16 15 14 14 13 11 12 15 16 16 16 17 18 17 15
0 0 0 0 0 0 0 0 0 0 1 2 3 3 3 3 3 5 6 7 7 9 11 13 13 11 9 10 12 12 11 11 11 11 11 12 13 14 14 14 15 15 14 13
0 0 0 0 0 0 0 0 0 0 1 2 2 2 2 2 4 6 6 7 8 9 11 11 10 9 8 9 9 9 7 7 8 9 11 13 13 12 12 12 12 11 11 11
0 0 0 0 0 0 0 0 0 0 0 1 1 1 1 2 4 5 6 6 7 9 11 11 9 9 9 8 7 5 3 3 6 9 11 13 13 13 12 11 10 9 9 8
0 0 0 0 0 0 0 0 0 0 0 1 2 2 1 1 3 4 4 4 5 8 11 11 10 10 9 7 5 4 2 2 4 8 11 13 14 13 13 12 10 9 7 5
Wind_Speed
2 2 3 7 8 7 4 2 3 4 3 4 6 7 7 6 5 5 4 5 6 7 8 8 9 9 8 7 7 7 6 5 4 3 3 2 2 1 1 1 2 2 3 3
4 4 10 8 6 3 3 1 2 2 2 3 4 4 5 5 6 6 6 6 7 6 6 6 7 8 8 8 7 7 7 6 5 3 3 2 2 2 2 1 1 2 2 3
6 9 6 4 4 3 3 4 5 4 1 2 5 2 1 2 3 4 5 5 6 9 10 8 8 8 8 8 8 8 7 6 5 4 3 2 1 1 1 0 0 1 2 3
6 7 4 4 5 4 5 6 5 6 3 2 3 1 4 3 1 2 3 4 6 8 8 8 8 8 9 9 8 7 8 7 6 5 4 4 3 2 2 2 1 1 2 2
6 4 4 5 6 4 6 4 3 3 2 2 1 3 4 1 2 3 4 6 7 7 9 9 9 9 8 9 8 8 7 6 6 5 5 5 3 2 1 1 1 1 1 2
7 5 4 5 5 3 2 3 4 5 5 2 3 3 3 3 6 5 5 6 7 7 8 8 7 7 6 7 7 7 7 6 6 5 5 5 5 3 3 2 1 1 1 1
7 7 5 3 2 4 3 6 5 6 5 4 2 2 5 6 6 8 7 7 8 8 8 7 7 7 7 8 8 7 8 6 6 6 5 5 5 5 4 3 3 2 1 1
1 7 5 2 3 4 2 8 7 4 3 3 3 1 5 4 3 5 6 6 6 7 8 8 9 9 9 8 8 8 8 7 6 6 5 4 4 3 3 3 3 3 2 3
3 6 6 4 2 4 2 1 6 7 2 1 2 3 4 2 4 4 5 6 6 7 8 8 8 8 8 8 8 9 8 6 6 5 4 4 3 3 3 3 2 2 2 2
5 3 7 6 4 3 4 5 5 5 4 1 2 2 3 2 1 3 4 5 4 5 5 5 6 6 6 7 7 7 8 7 5 5 5 4 4 4 3 2 2 2 2 2
4 2 6 5 1 2 3 3 5 4 5 6 2 5 5 6 5 5 4 4 4 5 6 6 6 6 6 6 6 6 6 6 5 5 5 4 4 4 3 3 3 3 2 2
2 5 2 6 5 2 3 3 5 4 2 4 4 6 4 6 5 6 6 4 4 6 6 5 5 4 4 4 5 6 6 6 6 6 5 5 4 4 3 3 4 3 3 3
4 6 3 8 9 7 4 2 2 5 5 4 5 5 2 3 4 6 6 5 4 4 5 4 3 4 4 4 5 5 5 5 5 5 5 4 4 4 4 4 3 3 3 3
6 6 6 6 6 4 5 6 2 4 3 3 5 5 2 2 4 5 5 5 5 3 3 4 3 3 3 4 4 5 4 4 5 5 5 5 4 5 4 4 3 3 3 3
6 4 2 3 4 2 3 5 3 1 4 6 6 6 6 6 5 6 6 5 5 3 3 3 3 2 2 2 2 3 3 3 3 4 4 5 4 4 4 3 3 3 3 3
5 4 2 3 4 4 4 6 3 2 1 3 4 2 3 3 4 4 4 6 5 3 3 3 3 3 3 3 3 3 2 2 2 3 4 3 3 3 3 3 3 3 3 3
2 4 3 3 4 4 4 4 1 1 0 4 5 4 3 4 4 5 5 5 6 5 4 4 4 4 3 3 3 3 3 2 2 2 3 2 2 2 3 3 2 2 3 2
5 4 3 0 4 1 6 3 2 4 3 2 3 4 4 4 4 3 4 5 5 4 4 3 3 2 2 1 1 2 2 3 2 1 2 2 2 2 2 2 2 3 2 3
6 7 4 3 1 4 5 4 1 2 2 2 5 4 4 4 5 3 0 4 4 4 4 3 3 3 2 2 2 2 2 2 2 1 1 2 2 2 1 2 3 3 2 2
4 5 5 3 3 4 5 5 2 6 1 3 3 4 2 4 3 3 2 2 2 2 3 3 3 3 3 2 3 3 2 1 1 1 1 1 2 2 2 3 3 2 2 3
3 2 3 3 3 5 5 4 3 3 5 3 2 3 3 2 4 3 1 2 2 2 2 3 3 3 2 2 4 3 2 2 2 1 1 1 1 2 2 2 2 2 2 1
3 2 2 3 3 6 4 2 3 5 3 2 3 3 3 3 2 2 2 1 1 2 2 2 3 2 1 2 4 3 2 3 2 1 0 1 1 1 1 1 2 1 1 1
2 5 5 5 6 5 1 3 3 4 4 3 4 4 5 4 2 1 1 1 1 2 2 2 3 2 0 1 3 2 2 1 0 0 0 1 2 1 1 1 1 2 1 1
3 1 3 1 1 1 1 2 2 3 3 4 5 5 5 4 2 1 0 0 0 1 2 2 3 2 1 0 1 1 1 1 1 0 1 1 1 2 1 1 1 1 1 2
2 1 2 0 1 2 3 1 2 2 3 3 3 3 4 4 3 1 1 1 1 1 2 2 3 3 2 1 1 1 1 0 0 1 1 1 1 1 1 1 1 2 3 3
2 2 3 4 4 2 3 2 1 3 3 2 3 2 2 3 3 2 1 2 2 2 2 2 2 2 1 1 1 1 1 1 1 1 2 2 2 2 1 1 2 4 3 4
Wind_Direction
296 90 225 230 214 206 216 221 247 242 186 130 142 151 177 179 172 171 179 175 169 173 172 162 160 159 154 153 151 154 152 158 149 139 140 143 161 175 179 186 176 172 174 164
1 260 236 230 240 230 216 229 250 285 192 128 140 155 185 179 185 176 176 175 174 170 161 162 159 162 162 163 159 157 160 163 164 163 162 162 162 177 180 193 177 172 163 164
231 247 246 236 239 234 253 216 207 184 72 79 109 34 220 209 179 170 175 171 166 167 167 169 166 170 166 168 170 166 166 167 169 161 140 121 85 60 71 105 209 214 179 177
257 259 267 257 239 210 254 233 198 180 146 212 142 168 267 226 204 180 175 181 176 174 165 169 171 173 175 177 172 167 167 168 169 161 152 154 159 173 200 192 200 219 198 191
266 274 273 258 247 210 228 217 188 189 137 84 38 128 268 203 202 210 197 191 186 180 172 171 176 180 178 178 175 171 166 167 170 166 164 161 166 178 177 155 152 199 244 205
264 271 238 233 253 228 202 59 38 50 65 28 248 143 261 224 210 201 198 190 183 173 168 171 173 169 173 173 173 169 168 173 173 168 167 168 169 171 163 172 180 217 235 237
312 306 289 260 307 321 73 81 35 8 16 272 281 116 243 229 198 186 182 188 176 171 170 169 165 170 176 175 172 166 167 173 174 169 173 174 171 168 175 188 193 199 212 228
274 296 292 291 187 211 203 135 151 186 217 274 337 222 259 238 186 174 165 155 151 161 167 170 175 176 180 179 176 172 172 176 179 176 179 179 171 170 185 195 193 199 209 213
188 261 287 291 271 156 161 172 165 138 124 84 299 302 315 29 76 102 138 142 151 162 165 170 172 168 173 177 178 175 174 175 179 179 177 178 176 176 192 203 198 207 212 209
163 263 298 312 10 9 146 147 85 98 127 165 297 279 253 275 134 114 129 147 164 157 162 160 163 169 173 171 170 167 169 174 179 176 181 182 184 192 194 185 197 201 210 213
118 146 306 347 356 269 21 54 97 113 142 146 212 266 227 202 179 148 139 144 150 157 170 168 169 177 177 168 164 168 173 170 176 184 186 188 192 194 189 187 197 200 201 196
116 118 283 277 274 223 132 155 135 143 204 156 160 255 260 190 169 149 140 132 140 153 169 171 164 159 165 167 167 173 179 179 185 185 186 192 193 183 184 197 209 206 203 207
110 96 38 343 344 358 20 15 115 129 122 147 159 244 280 161 139 143 142 137 131 146 151 146 140 158 167 170 171 175 181 184 185 179 181 187 190 187 198 212 217 211 207 211
100 98 143 192 234 281 314 322 353 105 132 179 196 199 241 169 148 149 152 151 140 131 150 145 143 165 166 168 172 173 181 186 183 183 186 192 199 200 205 213 215 219 217 218
86 103 170 226 255 307 321 322 341 66 179 174 205 184 207 200 172 161 153 145 130 126 128 139 142 167 159 158 170 171 178 184 185 181 188 204 206 202 204 210 215 223 226 229
71 101 60 338 333 352 351 337 338 342 131 144 130 183 223 147 107 107 126 131 126 131 139 155 157 168 166 169 181 180 179 177 157 168 193 200 195 199 208 216 216 222 236 238
78 98 84 297 316 18 333 307 311 338 19 144 163 204 159 115 122 150 154 139 137 153 172 177 183 185 191 185 171 177 182 164 156 171 182 178 176 191 210 213 211 227 236 234
138 114 126 132 30 237 246 284 86 80 49 108 123 135 144 147 142 141 157 146 147 154 167 176 175 174 164 166 156 152 142 135 145 163 182 195 193 207 217 219 224 230 229 231
143 136 122 119 170 271 299 322 347 113 10 61 116 109 107 102 72 34 126 143 164 173 160 154 155 157 141 139 135 115 111 114 117 154 192 214 208 210 221 240 248 237 222 237
80 109 121 132 164 223 252 287 273 97 24 315 106 119 115 84 83 261 248 150 143 139 128 126 110 101 120 141 121 108 116 126 177 215 235 248 212 209 228 243 249 251 231 238
28 49 127 162 201 247 260 286 48 116 225 249 141 138 141 161 201 217 163 118 134 122 121 126 115 110 131 134 119 128 147 208 225 221 263 298 262 241 239 246 254 261 262 260
166 155 187 155 183 248 287 52 130 206 212 142 116 114 107 112 111 91 90 106 112 103 103 120 110 103 131 126 121 144 187 220 215 183 333 318 293 280 297 285 286 279 257 252
155 185 186 184 208 236 229 150 175 155 133 129 128 129 124 121 115 97 73 74 128 155 138 130 123 107 48 106 125 145 222 231 175 62 317 298 299 285 281 263 285 297 280 262
318 38 101 82 278 298 48 89 102 121 138 145 141 137 133 134 137 114 97 20 178 158 148 140 134 138 148 0 133 178 241 220 121 122 280 295 301 300 310 308 285 281 273 265
267 21 58 26 272 15 7 22 101 101 109 117 118 123 139 139 147 159 196 234 198 147 159 153 158 160 180 192 196 240 271 181 103 252 265 279 280 272 288 308 290 269 256 233
248 166 154 218 230 182 254 277 101 97 101 117 111 96 114 145 155 160 220 225 198 183 165 143 143 155 178 209 255 262 264 232 214 274 268 259 265 260 246 278 326 327 297 299